Regional Weather Roundup
Issued by NWS Cleveland, OH

Home | Current Version | Previous Version | Text Only | Print | Product List | Glossary Off
Versions: 1 2 3 4 5 6 7 8 9 10 11 12 13 14 15 16 17 18 19 20 21 22 23 24 25 26 27 28 29 30 31 32 33 34 35 36 37 38 39 40 41 42 43 44 45 46 47 48 49 50

000
ASUS41 KCLE 240010
RWRCLE
OHIO REGIONAL WEATHER ROUNDUP
NATIONAL WEATHER SERVICE CLEVELAND, OH
800 PM EDT WED APR 23 2014

NOTE: "FAIR" INDICATES FEW OR NO CLOUDS BELOW 12,000 FEET WITH NO
SIGNIFICANT WEATHER AND/OR OBSTRUCTIONS TO VISIBILITY.

OHZ001>008-015>018-024>027-034-035-043-044-240100-
   NORTHWEST OHIO

CITY           SKY/WX    TMP DP  RH WIND       PRES   REMARKS
DEFIANCE       PTCLDY    55  23  28 N5        30.08R
FINDLAY        PTCLDY    53  29  39 E8        30.07R
TOLEDO EXPRESS PTCLDY    53  19  26 N7        30.07S
TOLEDO EXEC    CLEAR     52  27  38 E5        30.09R
LIMA           PTCLDY    53  30  41 NE7       30.07R
$$

OHZ009>014-019>023-028>033-038-089-240100-
   NORTHEAST OHIO

CITY           SKY/WX    TMP DP  RH WIND       PRES   REMARKS
CLE-HOPKINS    PTCLDY    47  23  38 N9        30.12S
CLE-LAKEFRONT  CLEAR     44  36  73 W9        30.09S
CUY CO. ARPT   PTCLDY    43  32  65 NW12      30.10R
LORAIN-ELYRIA  CLEAR     48  29  47 N6        30.10S
ASHTABULA      CLEAR     41  17  38 NW10      30.08R
AKRON-CANTON   PTCLDY    46  24  42 N9        30.08R
WOOSTER        CLEAR     44  29  55 N8        30.09S
MANSFIELD      CLEAR     45  30  55 N6        30.08F
YOUNGSTOWN     PTCLDY    42  12  29 NW13      30.06R
$$

OHZ042-051>053-060>062-070>072-077>081-240100-
  SOUTHWEST OHIO

CITY           SKY/WX    TMP DP  RH WIND       PRES   REMARKS
CINC-COVINGTON PTCLDY    58  31  35 NE9       30.04F
CINC-LUNKEN    CLEAR     57  33  40 N6        30.06S
HAMILTON       CLEAR     57  34  41 NE6       30.07S
DAYTON         PTCLDY    55  32  41 N6        30.07S
WRIGHT-PAT AFB CLEAR     56  31  39 N6        30.07R
DAYTON GENERAL CLEAR     54  32  43 N6        30.05S
WILMINGTON     CLEAR     54  31  41 N5        30.06R
$$

OHZ036-037-039>041-045>050-054>059-063>069-073>076-082>088-240100-
  CENTRAL AND SOUTHEAST OHIO

CITY           SKY/WX    TMP DP  RH WIND       PRES   REMARKS
COLUMBUS       PTCLDY    54  31  41 NE10      30.06R
OSU AIRPORT    CLEAR     50  33  52 NE8       30.06R
BOLTON FIELD   CLEAR     52  33  48 N7        30.07R
RICKENBACK AFB CLEAR     55  29  36 NE10      30.06S
NEWARK         CLEAR     51  31  46 VRB7      30.06R
MARION         CLEAR     48  31  51 NE10      30.08R
LANCASTER      CLEAR     52  33  48 N6        30.07R
ZANESVILLE     CLEAR     51  30  44 N8        30.06R
NEW PHILLY     CLEAR     47  28  47 NW10      30.08R
$$



USA.gov is the U.S. government's official web portal to all federal, state and local government web resources and services.